PEV107 LOWW-LSZR

Flight info

Callsign PEV107
Flight time 1h 1m
Altitude 32000
Route SOVIL2B/16 SOVIL DCT SITNI DCT BAGSI DCT MATIG DCT TRAUN/N0284F120 L856 KPT KPT4H
Aircraft E170/M-VGDW/C

Departure

Time 2026-05-04 18:41
Airport Vienna International Airport (LOWW)

Arrival

Time 2026-05-04 19:43
Airport Sankt Gallen Altenrhein Airport (LSZR)
Time Latitude Longitude Altitude Speed Heading
2026-05-04 18:03 48.12058 16.55623 589 ft 0 kts 106°
2026-05-04 18:08 48.12058 16.55622 589 ft 0 kts 106°
2026-05-04 18:24 48.12058 16.55621 589 ft 0 kts 106°
2026-05-04 18:29 48.12066 16.55591 589 ft 4 kts 118°
2026-05-04 18:29 48.12084 16.55564 588 ft 4 kts 166°
2026-05-04 18:30 48.12096 16.55566 588 ft 0 kts 206°
2026-05-04 18:33 48.12075 16.55551 588 ft 7 kts 206°
2026-05-04 18:33 48.12020 16.55510 590 ft 10 kts 206°
2026-05-04 18:33 48.11950 16.55461 592 ft 12 kts 206°
2026-05-04 18:33 48.11886 16.55466 591 ft 10 kts 112°
2026-05-04 18:34 48.11854 16.55579 593 ft 14 kts 117°
2026-05-04 18:34 48.11803 16.55735 596 ft 18 kts 116°
2026-05-04 18:34 48.11742 16.55923 598 ft 21 kts 115°
2026-05-04 18:34 48.11678 16.56118 598 ft 22 kts 117°
2026-05-04 18:35 48.11610 16.56327 597 ft 21 kts 116°
2026-05-04 18:35 48.11547 16.56520 596 ft 21 kts 115°
2026-05-04 18:35 48.11489 16.56698 599 ft 19 kts 116°
2026-05-04 18:35 48.11431 16.56878 601 ft 20 kts 116°
2026-05-04 18:36 48.11383 16.57024 603 ft 15 kts 116°
2026-05-04 18:36 48.11336 16.57168 603 ft 13 kts 116°
2026-05-04 18:36 48.11301 16.57281 614 ft 9 kts 100°
2026-05-04 18:36 48.11338 16.57349 606 ft 11 kts 25°
2026-05-04 18:37 48.11423 16.57412 609 ft 16 kts 27°
2026-05-04 18:37 48.11512 16.57465 604 ft 13 kts 359°
2026-05-04 18:37 48.11609 16.57429 614 ft 15 kts 344°
2026-05-04 18:37 48.11721 16.57382 611 ft 19 kts 345°
2026-05-04 18:38 48.11849 16.57328 603 ft 21 kts 345°
2026-05-04 18:38 48.11954 16.57288 602 ft 9 kts
2026-05-04 18:38 48.11996 16.57354 603 ft 9 kts 76°
2026-05-04 18:38 48.12013 16.57463 603 ft 13 kts 84°
2026-05-04 18:39 48.11992 16.57617 601 ft 17 kts 106°
2026-05-04 18:39 48.11958 16.57778 602 ft 13 kts 120°
2026-05-04 18:39 48.11910 16.57849 604 ft 8 kts 155°
2026-05-04 18:39 48.11898 16.57856 613 ft 0 kts 164°
2026-05-04 18:41 48.11805 16.57894 615 ft 48 kts 163°
2026-05-04 18:41 48.11214 16.58144 603 ft 126 kts 163°
2026-05-04 18:41 48.10233 16.58532 1076 ft 153 kts 165°
2026-05-04 18:41 48.09199 16.58941 2122 ft 155 kts 166°
2026-05-04 18:42 48.08113 16.59402 3037 ft 168 kts 167°
2026-05-04 18:42 48.06932 16.59889 3747 ft 188 kts 171°
2026-05-04 18:42 48.05562 16.59932 4302 ft 212 kts 193°
2026-05-04 18:42 48.04202 16.59033 5193 ft 218 kts 215°
2026-05-04 18:43 48.03104 16.57408 6026 ft 228 kts 232°
2026-05-04 18:43 48.02161 16.55492 6928 ft 232 kts 233°
2026-05-04 18:43 48.01231 16.53495 7747 ft 237 kts 234°
2026-05-04 18:43 48.00313 16.51367 8531 ft 254 kts 237°
2026-05-04 18:44 47.99391 16.48984 9177 ft 275 kts 239°
2026-05-04 18:44 47.99078 16.48135 9492 ft 278 kts 240°
2026-05-04 18:44 47.97860 16.43592 10033 ft 298 kts 263°
2026-05-04 18:44 47.97873 16.40331 10060 ft 324 kts 271°
2026-05-04 18:45 47.98031 16.36939 10073 ft 330 kts 272°
2026-05-04 18:45 47.98213 16.33501 10025 ft 333 kts 272°
2026-05-04 18:45 47.98372 16.30092 10107 ft 319 kts 271°
2026-05-04 18:45 47.98505 16.26740 10558 ft 330 kts 271°
2026-05-04 18:46 47.98632 16.23281 11488 ft 335 kts 271°
2026-05-04 18:46 47.98759 16.19814 12605 ft 335 kts 271°
2026-05-04 18:46 47.98893 16.16334 13816 ft 336 kts 271°
2026-05-04 18:46 47.99034 16.12824 14831 ft 341 kts 271°
2026-05-04 18:47 47.99222 16.09245 15745 ft 350 kts 274°
2026-05-04 18:47 47.99521 16.05594 16555 ft 359 kts 275°
2026-05-04 18:47 47.99843 16.01900 17264 ft 369 kts 275°
2026-05-04 18:47 48.00166 15.98051 18022 ft 377 kts 275°
2026-05-04 18:48 48.00476 15.94130 18801 ft 382 kts 275°
2026-05-04 18:48 48.00774 15.90182 19665 ft 383 kts 275°
2026-05-04 18:48 48.01074 15.86225 20531 ft 385 kts 275°
2026-05-04 18:48 48.01373 15.82226 21234 ft 390 kts 275°
2026-05-04 18:49 48.01677 15.78153 21702 ft 400 kts 275°
2026-05-04 18:49 48.01984 15.74021 22575 ft 395 kts 276°
2026-05-04 18:49 48.02284 15.70000 23713 ft 388 kts 276°
2026-05-04 18:49 48.02583 15.65955 24127 ft 397 kts 276°
2026-05-04 18:50 48.02886 15.61825 24644 ft 403 kts 276°
2026-05-04 18:50 48.03192 15.57635 25157 ft 408 kts 276°
2026-05-04 18:50 48.03500 15.53402 25762 ft 410 kts 276°
2026-05-04 18:50 48.03807 15.49171 26510 ft 408 kts 276°
2026-05-04 18:51 48.04109 15.44967 27267 ft 406 kts 276°
2026-05-04 18:51 48.04408 15.40792 27977 ft 404 kts 276°
2026-05-04 18:51 48.04645 15.36619 28659 ft 402 kts 272°
2026-05-04 18:51 48.04739 15.32449 29350 ft 400 kts 271°
2026-05-04 18:52 48.04804 15.28292 29992 ft 399 kts 271°
2026-05-04 18:52 48.04926 15.19959 29945 ft 399 kts 271°
2026-05-04 18:53 48.04669 15.11691 29913 ft 398 kts 265°
2026-05-04 18:53 48.04293 15.04843 29916 ft 398 kts 265°
2026-05-04 18:54 48.03859 14.95250 29930 ft 398 kts 266°
2026-05-04 18:54 48.03499 14.86989 29895 ft 398 kts 266°
2026-05-04 18:55 48.03193 14.80121 29902 ft 397 kts 266°
2026-05-04 18:55 48.02633 14.67760 29896 ft 398 kts 265°
2026-05-04 18:56 48.02251 14.59511 29892 ft 398 kts 265°
2026-05-04 18:56 48.01862 14.51261 29890 ft 398 kts 265°
2026-05-04 18:57 48.01667 14.47155 30162 ft 390 kts 265°
2026-05-04 18:57 48.01480 14.43186 30876 ft 378 kts 265°
2026-05-04 18:57 48.01296 14.39295 31354 ft 372 kts 265°
2026-05-04 18:57 48.01112 14.35457 31713 ft 369 kts 265°
2026-05-04 18:58 48.00927 14.31658 31988 ft 366 kts 265°
2026-05-04 18:58 48.00737 14.27811 31976 ft 377 kts 264°
2026-05-04 18:58 48.00343 14.19944 31838 ft 382 kts 264°
2026-05-04 18:59 47.99943 14.12055 31900 ft 383 kts 264°
2026-05-04 18:59 47.99539 14.04155 31896 ft 381 kts 264°
2026-05-04 19:00 47.99130 13.96253 31890 ft 381 kts 264°
2026-05-04 19:00 47.98714 13.88362 31902 ft 381 kts 264°
2026-05-04 19:01 47.98294 13.80475 31895 ft 381 kts 264°
2026-05-04 19:01 47.97872 13.72642 31901 ft 381 kts 264°
2026-05-04 19:02 47.97437 13.64705 31900 ft 381 kts 264°
2026-05-04 19:02 47.97003 13.56871 31901 ft 381 kts 264°
2026-05-04 19:03 47.96561 13.48990 31906 ft 381 kts 263°
2026-05-04 19:03 47.96119 13.41196 31904 ft 381 kts 263°
2026-05-04 19:04 47.95667 13.33316 31907 ft 381 kts 263°
2026-05-04 19:04 47.95209 13.25446 31915 ft 380 kts 263°
2026-05-04 19:05 47.94746 13.17582 31911 ft 380 kts 263°
2026-05-04 19:05 47.94279 13.09732 31797 ft 382 kts 263°
2026-05-04 19:06 47.94042 13.05783 31484 ft 383 kts 263°
2026-05-04 19:06 47.93804 13.01872 31149 ft 383 kts 263°
2026-05-04 19:06 47.93560 12.97865 30799 ft 383 kts 263°
2026-05-04 19:06 47.93321 12.93953 30482 ft 385 kts 263°
2026-05-04 19:07 47.93078 12.89967 30159 ft 386 kts 263°
2026-05-04 19:07 47.92833 12.85973 29936 ft 385 kts 263°
2026-05-04 19:07 47.92588 12.82035 30339 ft 379 kts 263°
2026-05-04 19:07 47.92335 12.78114 30635 ft 385 kts 262°
2026-05-04 19:08 47.92048 12.74114 30156 ft 390 kts 262°
2026-05-04 19:08 47.91735 12.70162 30386 ft 376 kts 262°
2026-05-04 19:08 47.91508 12.66333 31177 ft 370 kts 263°
2026-05-04 19:08 47.91309 12.62434 30843 ft 385 kts 263°
2026-05-04 19:09 47.91084 12.58410 30124 ft 390 kts 263°
2026-05-04 19:09 47.90848 12.54472 30245 ft 374 kts 263°
2026-05-04 19:09 47.90601 12.50690 31159 ft 364 kts 262°
2026-05-04 19:09 47.90349 12.46828 30455 ft 387 kts 262°
2026-05-04 19:10 47.90081 12.42876 30387 ft 376 kts 262°
2026-05-04 19:10 47.89829 12.38966 30414 ft 383 kts 263°
2026-05-04 19:10 47.89316 12.31023 30270 ft 386 kts 263°
2026-05-04 19:11 47.89058 12.27051 30114 ft 386 kts 263°
2026-05-04 19:11 47.88794 12.23062 29946 ft 385 kts 263°
2026-05-04 19:11 47.88529 12.19106 30080 ft 387 kts 263°
2026-05-04 19:11 47.88254 12.15104 29864 ft 391 kts 263°
2026-05-04 19:12 47.87976 12.11077 29305 ft 390 kts 263°
2026-05-04 19:12 47.87432 12.03065 28329 ft 389 kts 263°
2026-05-04 19:12 47.87163 11.99097 27876 ft 390 kts 263°
2026-05-04 19:13 47.86887 11.95075 27417 ft 391 kts 263°
2026-05-04 19:13 47.86610 11.91032 26960 ft 392 kts 263°
2026-05-04 19:13 47.86330 11.86991 26514 ft 393 kts 263°
2026-05-04 19:13 47.86036 11.82934 26066 ft 394 kts 263°
2026-05-04 19:14 47.85747 11.78869 25621 ft 395 kts 263°
2026-05-04 19:14 47.85463 11.74797 25184 ft 396 kts 263°
2026-05-04 19:14 47.85174 11.70718 24747 ft 397 kts 263°
2026-05-04 19:14 47.84878 11.66626 24323 ft 398 kts 263°
2026-05-04 19:15 47.84585 11.62526 23894 ft 398 kts 263°
2026-05-04 19:15 47.84281 11.58415 23473 ft 400 kts 262°
2026-05-04 19:15 47.83982 11.54299 22969 ft 400 kts 262°
2026-05-04 19:15 47.83680 11.50182 22477 ft 401 kts 262°
2026-05-04 19:16 47.83382 11.46131 21990 ft 393 kts 262°
2026-05-04 19:16 47.83079 11.42092 21498 ft 384 kts 262°
2026-05-04 19:16 47.82788 11.38179 21044 ft 380 kts 262°
2026-05-04 19:16 47.82473 11.34265 20605 ft 379 kts 262°
2026-05-04 19:17 47.82184 11.30383 20176 ft 376 kts 262°
2026-05-04 19:17 47.81894 11.26528 19760 ft 374 kts 262°
2026-05-04 19:17 47.81616 11.22696 19376 ft 371 kts 262°
2026-05-04 19:17 47.81328 11.18886 18971 ft 369 kts 262°
2026-05-04 19:18 47.81047 11.15105 18582 ft 367 kts 262°
2026-05-04 19:18 47.80760 11.11349 18163 ft 364 kts 262°
2026-05-04 19:18 47.80568 11.08878 17840 ft 363 kts 262°
2026-05-04 19:18 47.80470 11.07618 17678 ft 361 kts 261°
2026-05-04 19:19 47.80160 11.03916 17208 ft 358 kts 261°
2026-05-04 19:19 47.79871 11.00290 16766 ft 357 kts 262°
2026-05-04 19:19 47.79604 10.96640 16317 ft 354 kts 261°
2026-05-04 19:19 47.79329 10.93008 15877 ft 352 kts 261°
2026-05-04 19:20 47.79048 10.89395 15443 ft 350 kts 261°
2026-05-04 19:20 47.78769 10.85806 15025 ft 348 kts 261°
2026-05-04 19:20 47.78491 10.82269 14597 ft 339 kts 261°
2026-05-04 19:20 47.78218 10.78845 14183 ft 327 kts 260°
2026-05-04 19:21 47.77943 10.75536 13788 ft 317 kts 260°
2026-05-04 19:21 47.77675 10.72328 13361 ft 308 kts 259°
2026-05-04 19:21 47.77416 10.69201 12957 ft 300 kts 259°
2026-05-04 19:21 47.77034 10.66202 12569 ft 291 kts 254°
2026-05-04 19:22 47.76582 10.63304 12200 ft 285 kts 254°
2026-05-04 19:22 47.76133 10.60444 11850 ft 283 kts 254°
2026-05-04 19:22 47.75684 10.57590 11516 ft 284 kts 254°
2026-05-04 19:22 47.75234 10.54727 11178 ft 285 kts 254°
2026-05-04 19:23 47.74782 10.51869 10852 ft 284 kts 254°
2026-05-04 19:23 47.74333 10.49014 10515 ft 282 kts 254°
2026-05-04 19:23 47.73915 10.46365 10200 ft 281 kts 254°
2026-05-04 19:23 47.73472 10.43550 9869 ft 279 kts 254°
2026-05-04 19:24 47.73034 10.40758 9508 ft 277 kts 254°
2026-05-04 19:24 47.72597 10.37986 9156 ft 275 kts 254°
2026-05-04 19:24 47.72159 10.35227 8811 ft 274 kts 254°
2026-05-04 19:24 47.71723 10.32483 8463 ft 272 kts 254°
2026-05-04 19:25 47.71287 10.29763 8125 ft 271 kts 254°
2026-05-04 19:25 47.70845 10.27046 7790 ft 270 kts 254°
2026-05-04 19:25 47.70407 10.24342 7462 ft 269 kts 253°
2026-05-04 19:25 47.69967 10.21644 7138 ft 268 kts 254°
2026-05-04 19:26 47.69536 10.18999 7200 ft 260 kts 253°
2026-05-04 19:26 47.69106 10.16345 7453 ft 273 kts 254°
2026-05-04 19:26 47.68648 10.13527 6642 ft 288 kts 254°
2026-05-04 19:26 47.68190 10.10698 6507 ft 272 kts 253°
2026-05-04 19:27 47.67766 10.08123 7285 ft 255 kts 253°
2026-05-04 19:27 47.67330 10.05449 7367 ft 276 kts 254°
2026-05-04 19:27 47.66863 10.02616 6680 ft 284 kts 253°
2026-05-04 19:27 47.66406 9.99867 6644 ft 267 kts 253°
2026-05-04 19:28 47.65981 9.97294 6571 ft 267 kts 253°
2026-05-04 19:28 47.65535 9.94605 6490 ft 267 kts 253°
2026-05-04 19:28 47.65089 9.91930 6494 ft 267 kts 253°
2026-05-04 19:28 47.64636 9.89237 6440 ft 270 kts 253°
2026-05-04 19:29 47.64186 9.86528 6279 ft 271 kts 254°
2026-05-04 19:29 47.63728 9.83833 6092 ft 269 kts 253°
2026-05-04 19:29 47.63274 9.81168 6122 ft 267 kts 253°
2026-05-04 19:29 47.62813 9.78493 6087 ft 269 kts 253°
2026-05-04 19:30 47.62345 9.75798 5943 ft 271 kts 254°
2026-05-04 19:30 47.61874 9.73110 5756 ft 268 kts 254°
2026-05-04 19:30 47.61401 9.70445 5569 ft 267 kts 253°
2026-05-04 19:30 47.60923 9.67784 5353 ft 267 kts 254°
2026-05-04 19:31 47.60444 9.65172 5105 ft 265 kts 253°
2026-05-04 19:31 47.59943 9.62534 5004 ft 260 kts 254°
2026-05-04 19:31 47.59447 9.59963 5025 ft 265 kts 253°
2026-05-04 19:31 47.58942 9.57334 4992 ft 257 kts 254°
2026-05-04 19:32 47.58479 9.54930 4921 ft 230 kts 253°
2026-05-04 19:32 47.58055 9.52764 4873 ft 206 kts 253°
2026-05-04 19:32 47.57672 9.50823 4910 ft 189 kts 253°
2026-05-04 19:32 47.57303 9.48955 5018 ft 189 kts 253°
2026-05-04 19:33 47.56936 9.47070 5046 ft 189 kts 253°
2026-05-04 19:33 47.56578 9.45221 5143 ft 186 kts 253°
2026-05-04 19:33 47.56222 9.43349 5189 ft 191 kts 253°
2026-05-04 19:33 47.55874 9.41511 5130 ft 175 kts 253°
2026-05-04 19:34 47.55565 9.39890 5046 ft 152 kts 254°
2026-05-04 19:34 47.55292 9.38489 4955 ft 134 kts 253°
2026-05-04 19:34 47.55035 9.37194 4916 ft 130 kts 253°
2026-05-04 19:34 47.54782 9.35922 4941 ft 127 kts 253°
2026-05-04 19:35 47.54536 9.34664 5084 ft 133 kts 253°
2026-05-04 19:35 47.54282 9.33356 5076 ft 131 kts 251°
2026-05-04 19:35 47.53699 9.32366 4979 ft 133 kts 202°
2026-05-04 19:35 47.52821 9.32540 4952 ft 134 kts 142°
2026-05-04 19:36 47.52313 9.33657 5159 ft 131 kts 119°
2026-05-04 19:36 47.51816 9.34820 5216 ft 140 kts 128°
2026-05-04 19:36 47.51206 9.36008 4847 ft 143 kts 127°
2026-05-04 19:36 47.50652 9.37179 4557 ft 138 kts 126°
2026-05-04 19:37 47.50272 9.38477 4243 ft 140 kts 101°
2026-05-04 19:37 47.50168 9.39901 4012 ft 140 kts 97°
2026-05-04 19:37 47.50000 9.41334 3792 ft 142 kts 101°
2026-05-04 19:37 47.49837 9.42778 3536 ft 142 kts 98°
2026-05-04 19:38 47.49701 9.44214 3286 ft 141 kts 98°
2026-05-04 19:38 47.49554 9.45634 3039 ft 138 kts 100°
2026-05-04 19:38 47.49410 9.47036 2780 ft 138 kts 98°
2026-05-04 19:38 47.49299 9.48432 2603 ft 134 kts 97°
2026-05-04 19:39 47.49305 9.49810 2502 ft 134 kts 75°
2026-05-04 19:39 47.49720 9.51034 2535 ft 133 kts 58°
2026-05-04 19:39 47.50209 9.52233 2589 ft 137 kts 57°
2026-05-04 19:39 47.50695 9.53439 2594 ft 136 kts 58°
2026-05-04 19:40 47.51194 9.54616 2619 ft 135 kts 55°
2026-05-04 19:40 47.51566 9.55898 2651 ft 137 kts 80°
2026-05-04 19:40 47.51509 9.57293 2708 ft 139 kts 103°
2026-05-04 19:40 47.51356 9.58215 2713 ft 138 kts 105°
2026-05-04 19:41 47.51116 9.59597 2757 ft 139 kts 105°
2026-05-04 19:41 47.50819 9.60939 2795 ft 139 kts 121°
2026-05-04 19:41 47.49848 9.62032 2754 ft 134 kts 168°
2026-05-04 19:41 47.48961 9.61884 2546 ft 126 kts 212°
2026-05-04 19:42 47.48352 9.60967 2357 ft 127 kts 242°
2026-05-04 19:42 47.48160 9.60127 2045 ft 129 kts 262°
2026-05-04 19:42 47.48198 9.58824 1673 ft 122 kts 283°
2026-05-04 19:42 47.48331 9.57677 1471 ft 112 kts 281°
2026-05-04 19:43 47.48451 9.56568 1318 ft 102 kts 280°
2026-05-04 19:43 47.48539 9.55742 1316 ft 53 kts 278°
2026-05-04 19:43 47.48573 9.55426 1315 ft 11 kts 278°
2026-05-04 19:43 47.48587 9.55340 1315 ft 7 kts 306°
2026-05-04 19:44 47.48634 9.55326 1313 ft 4 kts 356°
2026-05-04 19:44 47.48657 9.55288 1313 ft 7 kts 291°
2026-05-04 19:44 47.48678 9.55243 1313 ft 5 kts 351°
2026-05-04 19:44 47.48704 9.55246 1313 ft 4 kts
2026-05-04 19:45 47.48718 9.55248 1313 ft 0 kts